FW7478 Weather Reports


Display with metric or nautical units.
time (UTC)temp
F
wind
direction
speed
MPH
gust
MPH
rain 1hr
in
rain 24hr
in
rain mn
in
humidity
%
barometer
mb
20260509223010 87 174 5.0 10.0 0.00 0.00 0.00 43 1005.2
20260509221509 87 180 7.0 11.0 0.00 0.00 0.00 43 1005.3
20260509220020 87 233 6.0 11.0 0.00 0.00 0.00 42 1005.4
20260509180056 83 206 6.0 14.0 0.00 0.00 0.00 58 1008.4
20260509174555 81 118 4.0 8.0 0.00 0.00 0.00 60 1008.5
20260509173053 82 294 3.0 7.0 0.00 0.00 0.00 57 1008.8
20260509171552 81 238 4.0 10.0 0.00 0.00 0.00 60 1008.9
20260509161540 80 225 6.0 11.0 0.00 0.00 0.00 61 1009.3
20260509160038 80 256 3.0 8.0 0.00 0.00 0.00 65 1009.1
20260509154540 78 237 3.0 8.0 0.00 0.00 0.00 68 1009.3
20260509153039 77 258 4.0 8.0 0.00 0.00 0.00 69 1009.4
20260509151531 78 340 3.0 8.0 0.00 0.00 0.00 70 1009.3
20260509150031 77 312 1.0 9.0 0.00 0.00 0.00 72 1009.4
20260509144532 77 314 4.0 9.0 0.00 0.00 0.00 73 1009.3
20260509143024 75 302 3.0 11.0 0.00 0.00 0.00 76 1009.2
20260509141519 73 360 2.0 9.0 0.00 0.00 0.00 80 1009.2
20260509140015 70 281 2.0 8.0 0.00 0.00 0.00 83 1009.3
20260509134513 69 269 0.0 5.0 0.00 0.00 0.00 84 1009.4
20260509133010 67 360 3.0 8.0 0.00 0.00 0.00 85 1009.3
20260509131512 66 360 1.0 9.0 0.00 0.00 0.00 84 1009.1
20260509130009 65 360 4.0 9.0 0.00 0.00 0.00 83 1009.0
20260509124510 65 360 4.0 10.0 0.00 0.00 0.00 84 1008.5
20260509123016 64 360 4.0 13.0 0.00 0.00 0.00 85 1008.5
20260509121511 64 360 3.0 10.0 0.00 0.00 0.00 85 1008.4
20260509120007 64 360 5.0 11.0 0.00 0.00 0.00 85 1008.3
20260509114505 64 360 7.0 13.0 0.00 0.00 0.00 84 1008.1
20260509113006 63 360 4.0 9.0 0.00 0.00 0.00 86 1008.0
20260509111504 63 360 3.0 10.0 0.00 0.00 0.00 87 1007.8
20260509110003 63 360 5.0 12.0 0.00 0.00 0.00 88 1007.6
20260509104502 63 360 1.0 8.0 0.00 0.00 0.00 89 1007.6
20260509103001 63 360 3.0 10.0 0.00 0.00 0.00 88 1007.7
20260509101603 63 360 2.0 6.0 0.00 0.00 0.00 88 1008.0
20260509100059 64 360 3.0 9.0 0.00 0.00 0.00 87 1007.9
20260509094600 64 360 3.0 9.0 0.00 0.00 0.00 87 1007.9
20260509093059 64 360 6.0 11.0 0.00 0.00 0.00 87 1008.0
20260509091629 64 360 5.0 10.0 0.00 0.00 0.00 87 1008.1
20260509090057 64 360 8.0 15.0 0.00 0.00 0.00 86 1008.4
20260509084556 65 360 9.0 16.0 0.00 0.00 0.00 85 1008.9
20260509083056 64 360 6.0 12.0 0.00 0.00 0.00 85 1008.7
20260509081555 63 360 8.0 15.0 0.00 0.00 0.00 80 1009.0
20260509080105 63 360 6.0 14.0 0.00 0.00 0.00 81 1009.4
20260509074554 63 360 6.0 12.0 0.00 0.00 0.00 81 1009.7
20260509073115 64 360 5.0 17.0 0.00 0.00 0.00 80 1010.0
20260509071543 65 360 10.0 21.0 0.00 0.00 0.00 81 1010.7
20260509070044 66 360 14.0 34.0 0.00 0.00 0.00 86 1010.8
20260509064538 68 360 4.0 9.0 0.00 0.00 0.00 91 1010.7
20260509063036 67 360 7.0 22.0 0.00 0.00 0.00 91 1009.9
20260509061531 67 360 3.0 9.0 0.00 0.00 0.00 91 1008.1
20260509060040 67 360 2.0 8.0 0.00 0.00 0.00 90 1007.9
20260509054528 67 360 2.0 5.0 0.00 0.00 0.00 90 1007.6
20260509053032 67 360 3.0 8.0 0.00 0.00 0.00 90 1007.8
20260509051524 67 360 5.0 10.0 0.00 0.00 0.00 89 1007.8
20260509050021 68 360 3.0 12.0 0.00 0.00 0.00 89 1008.1
20260509044532 68 360 5.0 13.0 0.00 0.00 0.00 88 1008.1
20260509043029 68 360 8.0 13.0 0.00 0.00 0.00 88 1007.9
20260509041519 69 360 4.0 11.0 0.00 0.00 0.00 87 1007.8
20260509040018 69 360 7.0 12.0 0.00 0.00 0.00 87 1007.7
20260509034525 69 360 6.0 12.0 0.00 0.00 0.00 87 1007.6
20260509033019 69 360 7.0 11.0 0.00 0.00 0.00 87 1007.7
20260509031518 69 360 6.0 9.0 0.00 0.00 0.00 86 1007.7
20260509030015 69 360 4.0 10.0 0.00 0.00 0.00 86 1007.4
20260509024516 69 360 5.0 8.0 0.00 0.00 0.00 85 1007.1
20260509023015 70 360 3.0 6.0 0.00 0.00 0.00 85 1007.2
20260509021514 70 360 3.0 6.0 0.00 0.00 0.00 84 1007.0
20260509020014 70 360 2.0 5.0 0.00 0.00 0.00 84 1006.9
20260509014515 71 360 2.0 5.0 0.00 0.00 0.00 82 1006.8
20260509013012 71 360 2.0 6.0 0.00 0.00 0.00 81 1006.6
20260509011514 72 360 4.0 9.0 0.00 0.00 0.00 79 1006.3
20260509010018 73 360 4.0 9.0 0.00 0.00 0.00 78 1006.2
20260509004511 74 360 7.0 13.0 0.00 0.00 0.00 76 1006.2
20260509003019 74 360 8.0 13.0 0.00 0.00 0.00 75 1006.2
20260509001510 75 263 7.0 12.0 0.00 0.00 0.00 74 1006.1
20260509000009 75 250 9.0 12.0 0.00 0.00 0.00 73 1006.1
20260508234508 76 261 6.0 12.0 0.00 0.00 0.00 72 1006.1
20260508233008 76 277 3.0 13.0 0.00 0.00 0.00 72 1006.1
20260508231507 76 261 8.0 13.0 0.00 0.00 0.00 70 1006.0
20260508230007 78 360 9.0 13.0 0.00 0.00 0.00 68 1005.8
20260508224511 78 275 7.0 14.0 0.00 0.00 0.00 69 1005.7